#Datum;Uhrzeit;WR;Pac;DaySum;Status;WR;Pac;DaySum;Status;Pdc1;Udc;Temp;WR;Pac;DaySum;Status;Pdc1;Udc;Temp;WR;Pac;DaySum;Status;Pdc1;Udc;Temp;WR;Pac;DaySum;Status;Pdc1;Pdc2;Udc1;Udc2;Temp;WR;Pac;DaySum;Status;Pdc1;Pdc2;Udc1;Udc2;Temp;WR;Pac;DaySum;Status;Pdc1;Udc;Temp;WR;Pac;DaySum;Status;Pdc1;Udc;Temp;WR;Pac;DaySum;Status;Pdc1;Udc;Temp
19.11.17;23:55:00;1;323;12524;0;2;0;3324;0;0;0;0;3;0;2029;0;0;0;0;4;0;2361;0;0;0;0;5;0;6862;0;0;0;0;0;0;6;0;2909;0;0;0;0;0;0;7;0;4072;0;0;0;0;8;0;4070;0;0;0;0;9;0;2156;0;0;0;0
19.11.17;23:50:00;1;330;12496;0;2;0;3324;0;0;0;0;3;0;2029;0;0;0;0;4;0;2361;0;0;0;0;5;0;6862;0;0;0;0;0;0;6;0;2909;0;0;0;0;0;0;7;0;4072;0;0;0;0;8;0;4070;0;0;0;0;9;0;2156;0;0;0;0
19.11.17;23:45:00;1;355;12469;0;2;0;3324;0;0;0;0;3;0;2029;0;0;0;0;4;0;2361;0;0;0;0;5;0;6862;0;0;0;0;0;0;6;0;2909;0;0;0;0;0;0;7;0;4072;0;0;0;0;8;0;4070;0;0;0;0;9;0;2156;0;0;0;0
19.11.17;23:40:00;1;374;12438;0;2;0;3324;0;0;0;0;3;0;2029;0;0;0;0;4;0;2361;0;0;0;0;5;0;6862;0;0;0;0;0;0;6;0;2909;0;0;0;0;0;0;7;0;4072;0;0;0;0;8;0;4070;0;0;0;0;9;0;2156;0;0;0;0
19.11.17;23:35:00;1;374;12407;0;2;0;3324;0;0;0;0;3;0;2029;0;0;0;0;4;0;2361;0;0;0;0;5;0;6862;0;0;0;0;0;0;6;0;2909;0;0;0;0;0;0;7;0;4072;0;0;0;0;8;0;4070;0;0;0;0;9;0;2156;0;0;0;0
19.11.17;23:30:00;1;387;12376;0;2;0;3324;0;0;0;0;3;0;2029;0;0;0;0;4;0;2361;0;0;0;0;5;0;6862;0;0;0;0;0;0;6;0;2909;0;0;0;0;0;0;7;0;4072;0;0;0;0;8;0;4070;0;0;0;0;9;0;2156;0;0;0;0
19.11.17;23:25:00;1;332;12346;0;2;0;3324;0;0;0;0;3;0;2029;0;0;0;0;4;0;2361;0;0;0;0;5;0;6862;0;0;0;0;0;0;6;0;2909;0;0;0;0;0;0;7;0;4072;0;0;0;0;8;0;4070;0;0;0;0;9;0;2156;0;0;0;0
19.11.17;23:20:00;1;315;12318;0;2;0;3324;0;0;0;0;3;0;2029;0;0;0;0;4;0;2361;0;0;0;0;5;0;6862;0;0;0;0;0;0;6;0;2909;0;0;0;0;0;0;7;0;4072;0;0;0;0;8;0;4070;0;0;0;0;9;0;2156;0;0;0;0
19.11.17;23:15:00;1;266;12292;0;2;0;3324;0;0;0;0;3;0;2029;0;0;0;0;4;0;2361;0;0;0;0;5;0;6862;0;0;0;0;0;0;6;0;2909;0;0;0;0;0;0;7;0;4072;0;0;0;0;8;0;4070;0;0;0;0;9;0;2156;0;0;0;0
19.11.17;23:10:00;1;268;12269;0;2;0;3324;0;0;0;0;3;0;2029;0;0;0;0;4;0;2361;0;0;0;0;5;0;6862;0;0;0;0;0;0;6;0;2909;0;0;0;0;0;0;7;0;4072;0;0;0;0;8;0;4070;0;0;0;0;9;0;2156;0;0;0;0
19.11.17;23:06:00;1;273;12256;0;2;0;3324;0;0;0;0;3;0;2029;0;0;0;0;4;0;2361;0;0;0;0;5;0;6862;0;0;0;0;0;0;6;0;2909;0;0;0;0;0;0;7;0;4072;0;0;0;0;8;0;4070;0;0;0;0;9;0;2156;0;0;0;0
19.11.17;23:00:00;1;297;12224;0;2;0;3324;0;0;0;0;3;0;2029;0;0;0;0;4;0;2361;0;0;0;0;5;0;6862;0;0;0;0;0;0;6;0;2909;0;0;0;0;0;0;7;0;4072;0;0;0;0;8;0;4070;0;0;0;0;9;0;2156;0;0;0;0
19.11.17;22:55:00;1;299;12199;0;2;0;3324;0;0;0;0;3;0;2029;0;0;0;0;4;0;2361;0;0;0;0;5;0;6862;2;0;0;0;0;0;6;0;2909;2;0;0;0;0;0;7;0;4072;0;0;0;0;8;0;4070;0;0;0;0;9;0;2156;0;0;0;0
19.11.17;22:50:00;1;298;12174;0;2;0;3324;0;0;0;0;3;0;2029;0;0;0;0;4;0;2361;0;0;0;0;5;0;6862;2;0;0;0;0;0;6;0;2909;2;0;0;0;0;0;7;0;4072;0;0;0;0;8;0;4070;0;0;0;0;9;0;2156;0;0;0;0
19.11.17;22:45:00;1;342;12149;0;2;0;3324;0;0;0;0;3;0;2029;0;0;0;0;4;0;2361;0;0;0;0;5;0;6862;2;0;0;0;0;0;6;0;2909;2;0;0;0;0;0;7;0;4072;0;0;0;0;8;0;4070;0;0;0;0;9;0;2156;0;0;0;0
19.11.17;22:40:00;1;405;12120;0;2;0;3324;0;0;0;0;3;0;2029;0;0;0;0;4;0;2361;0;0;0;0;5;0;6862;2;0;0;0;0;0;6;0;2909;2;0;0;0;0;0;7;0;4072;0;0;0;0;8;0;4070;0;0;0;0;9;0;2156;0;0;0;0
19.11.17;22:35:00;1;405;12086;0;2;0;3324;0;0;0;0;3;0;2029;0;0;0;0;4;0;2361;0;0;0;0;5;0;6862;2;0;0;0;0;0;6;0;2909;2;0;0;0;0;0;7;0;4072;0;0;0;0;8;0;4070;0;0;0;0;9;0;2156;0;0;0;0
19.11.17;22:30:00;1;387;12052;0;2;0;3324;0;0;0;0;3;0;2029;0;0;0;0;4;0;2361;0;0;0;0;5;0;6862;2;0;0;0;0;0;6;0;2909;2;0;0;0;0;0;7;0;4072;0;0;0;0;8;0;4070;0;0;0;0;9;0;2156;0;0;0;0
19.11.17;22:25:00;1;394;12019;0;2;0;3324;0;0;0;0;3;0;2029;0;0;0;0;4;0;2361;0;0;0;0;5;0;6862;2;0;0;0;0;0;6;0;2909;2;0;0;0;0;0;7;0;4072;0;0;0;0;8;0;4070;0;0;0;0;9;0;2156;0;0;0;0
19.11.17;22:20:00;1;422;11986;0;2;0;3324;0;0;0;0;3;0;2029;0;0;0;0;4;0;2361;0;0;0;0;5;0;6862;2;0;0;0;0;0;6;0;2909;2;0;0;0;0;0;7;0;4072;0;0;0;0;8;0;4070;0;0;0;0;9;0;2156;0;0;0;0
19.11.17;22:15:00;1;404;11950;0;2;0;3324;0;0;0;0;3;0;2029;0;0;0;0;4;0;2361;0;0;0;0;5;0;6862;2;0;0;0;0;0;6;0;2909;2;0;0;0;0;0;7;0;4072;0;0;0;0;8;0;4070;0;0;0;0;9;0;2156;0;0;0;0
19.11.17;22:10:00;1;354;11918;0;2;0;3324;0;0;0;0;3;0;2029;0;0;0;0;4;0;2361;0;0;0;0;5;0;6862;2;0;0;0;0;0;6;0;2909;2;0;0;0;0;0;7;0;4072;0;0;0;0;8;0;4070;0;0;0;0;9;0;2156;0;0;0;0
19.11.17;22:05:00;1;340;11888;0;2;0;3324;0;0;0;0;3;0;2029;0;0;0;0;4;0;2361;0;0;0;0;5;0;6862;2;0;0;0;0;0;6;0;2909;2;0;0;0;0;0;7;0;4072;0;0;0;0;8;0;4070;0;0;0;0;9;0;2156;0;0;0;0
19.11.17;22:00:00;1;366;11860;0;2;0;3324;0;0;0;0;3;0;2029;0;0;0;0;4;0;2361;0;0;0;0;5;0;6862;2;0;0;0;0;0;6;0;2909;2;0;0;0;0;0;7;0;4072;0;0;0;0;8;0;4070;0;0;0;0;9;0;2156;0;0;0;0
19.11.17;21:55:00;1;429;11829;0;2;0;3324;0;0;0;0;3;0;2029;0;0;0;0;4;0;2361;0;0;0;0;5;0;6862;2;0;0;0;0;0;6;0;2909;2;0;0;0;0;0;7;0;4072;0;0;0;0;8;0;4070;0;0;0;0;9;0;2156;0;0;0;0
19.11.17;21:50:00;1;459;11793;0;2;0;3324;0;0;0;0;3;0;2029;0;0;0;0;4;0;2361;0;0;0;0;5;0;6862;2;0;0;0;0;0;6;0;2909;2;0;0;0;0;0;7;0;4072;0;0;0;0;8;0;4070;0;0;0;0;9;0;2156;0;0;0;0
19.11.17;21:45:00;1;491;11754;0;2;0;3324;0;0;0;0;3;0;2029;0;0;0;0;4;0;2361;0;0;0;0;5;0;6862;2;0;0;0;0;0;6;0;2909;2;0;0;0;0;0;7;0;4072;0;0;0;0;8;0;4070;0;0;0;0;9;0;2156;0;0;0;0
19.11.17;21:40:00;1;478;11713;0;2;0;3324;0;0;0;0;3;0;2029;0;0;0;0;4;0;2361;0;0;0;0;5;0;6862;2;0;0;0;0;0;6;0;2909;2;0;0;0;0;0;7;0;4072;0;0;0;0;8;0;4070;0;0;0;0;9;0;2156;0;0;0;0
19.11.17;21:35:00;1;459;11673;0;2;0;3324;0;0;0;0;3;0;2029;0;0;0;0;4;0;2361;0;0;0;0;5;0;6862;2;0;0;0;0;0;6;0;2909;2;0;0;0;0;0;7;0;4072;0;0;0;0;8;0;4070;0;0;0;0;9;0;2156;0;0;0;0
19.11.17;21:30:00;1;452;11634;0;2;0;3324;0;0;0;0;3;0;2029;0;0;0;0;4;0;2361;0;0;0;0;5;0;6862;2;0;0;0;0;0;6;0;2909;2;0;0;0;0;0;7;0;4072;0;0;0;0;8;0;4070;0;0;0;0;9;0;2156;0;0;0;0
19.11.17;21:25:00;1;448;11597;0;2;0;3324;0;0;0;0;3;0;2029;0;0;0;0;4;0;2361;0;0;0;0;5;0;6862;2;0;0;0;0;0;6;0;2909;2;0;0;0;0;0;7;0;4072;0;0;0;0;8;0;4070;0;0;0;0;9;0;2156;0;0;0;0
19.11.17;21:20:00;1;446;11560;0;2;0;3324;0;0;0;0;3;0;2029;0;0;0;0;4;0;2361;0;0;0;0;5;0;6862;2;0;0;0;0;0;6;0;2909;2;0;0;0;0;0;7;0;4072;0;0;0;0;8;0;4070;0;0;0;0;9;0;2156;0;0;0;0
19.11.17;21:15:00;1;382;11524;0;2;0;3324;0;0;0;0;3;0;2029;0;0;0;0;4;0;2361;0;0;0;0;5;0;6862;2;0;0;0;0;0;6;0;2909;2;0;0;0;0;0;7;0;4072;0;0;0;0;8;0;4070;0;0;0;0;9;0;2156;0;0;0;0
19.11.17;21:10:00;1;381;11492;0;2;0;3324;0;0;0;0;3;0;2029;0;0;0;0;4;0;2361;0;0;0;0;5;0;6862;2;0;0;0;0;0;6;0;2909;2;0;0;0;0;0;7;0;4072;0;0;0;0;8;0;4070;0;0;0;0;9;0;2156;0;0;0;0
19.11.17;21:05:00;1;367;11460;0;2;0;3324;0;0;0;0;3;0;2029;0;0;0;0;4;0;2361;0;0;0;0;5;0;6862;2;0;0;0;0;0;6;0;2909;2;0;0;0;0;0;7;0;4072;0;0;0;0;8;0;4070;0;0;0;0;9;0;2156;0;0;0;0
19.11.17;21:00:00;1;396;11429;0;2;0;3324;0;0;0;0;3;0;2029;0;0;0;0;4;0;2361;0;0;0;0;5;0;6862;2;0;0;0;0;0;6;0;2909;2;0;0;0;0;0;7;0;4072;0;0;0;0;8;0;4070;0;0;0;0;9;0;2156;0;0;0;0
19.11.17;20:55:00;1;418;11396;0;2;0;3324;0;0;0;0;3;0;2029;0;0;0;0;4;0;2361;0;0;0;0;5;0;6862;2;0;0;0;0;0;6;0;2909;2;0;0;0;0;0;7;0;4072;0;0;0;0;8;0;4070;0;0;0;0;9;0;2156;0;0;0;0
19.11.17;20:50:00;1;428;11362;0;2;0;3324;0;0;0;0;3;0;2029;0;0;0;0;4;0;2361;0;0;0;0;5;0;6862;2;0;0;0;0;0;6;0;2909;2;0;0;0;0;0;7;0;4072;0;0;0;0;8;0;4070;0;0;0;0;9;0;2156;0;0;0;0
19.11.17;20:45:00;1;416;11326;0;2;0;3324;0;0;0;0;3;0;2029;0;0;0;0;4;0;2361;0;0;0;0;5;0;6862;2;0;0;0;0;0;6;0;2909;2;0;0;0;0;0;7;0;4072;0;0;0;0;8;0;4070;0;0;0;0;9;0;2156;0;0;0;0
19.11.17;20:40:00;1;390;11291;0;2;0;3324;0;0;0;0;3;0;2029;0;0;0;0;4;0;2361;0;0;0;0;5;0;6862;2;0;0;0;0;0;6;0;2909;2;0;0;0;0;0;7;0;4072;0;0;0;0;8;0;4070;0;0;0;0;9;0;2156;0;0;0;0
19.11.17;20:35:00;1;410;11259;0;2;0;3324;0;0;0;0;3;0;2029;0;0;0;0;4;0;2361;0;0;0;0;5;0;6862;2;0;0;0;0;0;6;0;2909;2;0;0;0;0;0;7;0;4072;0;0;0;0;8;0;4070;0;0;0;0;9;0;2156;0;0;0;0
19.11.17;20:30:00;1;410;11224;0;2;0;3324;0;0;0;0;3;0;2029;0;0;0;0;4;0;2361;0;0;0;0;5;0;6862;2;0;0;0;0;0;6;0;2909;2;0;0;0;0;0;7;0;4072;0;0;0;0;8;0;4070;0;0;0;0;9;0;2156;0;0;0;0
19.11.17;20:25:00;1;433;11191;0;2;0;3324;0;0;0;0;3;0;2029;0;0;0;0;4;0;2361;0;0;0;0;5;0;6862;2;0;0;0;0;0;6;0;2909;2;0;0;0;0;0;7;0;4072;0;0;0;0;8;0;4070;0;0;0;0;9;0;2156;0;0;0;0
19.11.17;20:20:00;1;443;11153;0;2;0;3324;0;0;0;0;3;0;2029;0;0;0;0;4;0;2361;0;0;0;0;5;0;6862;2;0;0;0;0;0;6;0;2909;2;0;0;0;0;0;7;0;4072;0;0;0;0;8;0;4070;0;0;0;0;9;0;2156;0;0;0;0
19.11.17;20:15:00;1;416;11117;0;2;0;3324;0;0;0;0;3;0;2029;0;0;0;0;4;0;2361;0;0;0;0;5;0;6862;2;0;0;0;0;0;6;0;2909;2;0;0;0;0;0;7;0;4072;0;0;0;0;8;0;4070;0;0;0;0;9;0;2156;0;0;0;0
19.11.17;20:10:00;1;418;11082;0;2;0;3324;0;0;0;0;3;0;2029;0;0;0;0;4;0;2361;0;0;0;0;5;0;6862;2;0;0;0;0;0;6;0;2909;2;0;0;0;0;0;7;0;4072;0;0;0;0;8;0;4070;0;0;0;0;9;0;2156;0;0;0;0
19.11.17;20:05:00;1;416;11047;0;2;0;3324;0;0;0;0;3;0;2029;0;0;0;0;4;0;2361;0;0;0;0;5;0;6862;2;0;0;0;0;0;6;0;2909;2;0;0;0;0;0;7;0;4072;0;0;0;0;8;0;4070;0;0;0;0;9;0;2156;0;0;0;0
19.11.17;20:00:00;1;423;11012;0;2;0;3324;0;0;0;0;3;0;2029;0;0;0;0;4;0;2361;0;0;0;0;5;0;6862;2;0;0;0;0;0;6;0;2909;2;0;0;0;0;0;7;0;4072;0;0;0;0;8;0;4070;0;0;0;0;9;0;2156;0;0;0;0
19.11.17;19:55:00;1;444;10976;0;2;0;3324;0;0;0;0;3;0;2029;0;0;0;0;4;0;2361;0;0;0;0;5;0;6862;2;0;0;0;0;0;6;0;2909;2;0;0;0;0;0;7;0;4072;0;0;0;0;8;0;4070;0;0;0;0;9;0;2156;0;0;0;0
19.11.17;19:50:00;1;454;10939;0;2;0;3324;0;0;0;0;3;0;2029;0;0;0;0;4;0;2361;0;0;0;0;5;0;6862;2;0;0;0;0;0;6;0;2909;2;0;0;0;0;0;7;0;4072;0;0;0;0;8;0;4070;0;0;0;0;9;0;2156;0;0;0;0
19.11.17;19:45:00;1;494;10900;0;2;0;3324;0;0;0;0;3;0;2029;0;0;0;0;4;0;2361;0;0;0;0;5;0;6862;2;0;0;0;0;0;6;0;2909;2;0;0;0;0;0;7;0;4072;0;0;0;0;8;0;4070;0;0;0;0;9;0;2156;0;0;0;0
19.11.17;19:40:00;1;470;10860;0;2;0;3324;0;0;0;0;3;0;2029;0;0;0;0;4;0;2361;0;0;0;0;5;0;6862;2;0;0;0;0;0;6;0;2909;2;0;0;0;0;0;7;0;4072;0;0;0;0;8;0;4070;0;0;0;0;9;0;2156;0;0;0;0
19.11.17;19:35:00;1;474;10820;0;2;0;3324;0;0;0;0;3;0;2029;0;0;0;0;4;0;2361;0;0;0;0;5;0;6862;2;0;0;0;0;0;6;0;2909;2;0;0;0;0;0;7;0;4072;0;0;0;0;8;0;4070;0;0;0;0;9;0;2156;0;0;0;0
19.11.17;19:30:00;1;486;10781;0;2;0;3324;0;0;0;0;3;0;2029;0;0;0;0;4;0;2361;0;0;0;0;5;0;6862;2;0;0;0;0;0;6;0;2909;2;0;0;0;0;0;7;0;4072;0;0;0;0;8;0;4070;0;0;0;0;9;0;2156;0;0;0;0
19.11.17;19:25:00;1;522;10740;0;2;0;3324;0;0;0;0;3;0;2029;0;0;0;0;4;0;2361;0;0;0;0;5;0;6862;2;0;0;0;0;0;6;0;2909;2;0;0;0;0;0;7;0;4072;0;0;0;0;8;0;4070;0;0;0;0;9;0;2156;0;0;0;0
19.11.17;19:20:00;1;579;10694;0;2;0;3324;0;0;0;0;3;0;2029;0;0;0;0;4;0;2361;0;0;0;0;5;0;6862;2;0;0;0;0;0;6;0;2909;2;0;0;0;0;0;7;0;4072;0;0;0;0;8;0;4070;0;0;0;0;9;0;2156;0;0;0;0
19.11.17;19:15:00;1;488;10645;0;2;0;3324;0;0;0;0;3;0;2029;0;0;0;0;4;0;2361;0;0;0;0;5;0;6862;2;0;0;0;0;0;6;0;2909;2;0;0;0;0;0;7;0;4072;0;0;0;0;8;0;4070;0;0;0;0;9;0;2156;0;0;0;0
19.11.17;19:10:00;1;417;10604;0;2;0;3324;0;0;0;0;3;0;2029;0;0;0;0;4;0;2361;0;0;0;0;5;0;6862;2;0;0;0;0;0;6;0;2909;2;0;0;0;0;0;7;0;4072;0;0;0;0;8;0;4070;0;0;0;0;9;0;2156;0;0;0;0
19.11.17;19:05:00;1;438;10569;0;2;0;3324;0;0;0;0;3;0;2029;0;0;0;0;4;0;2361;0;0;0;0;5;0;6862;2;0;0;0;0;0;6;0;2909;2;0;0;0;0;0;7;0;4072;0;0;0;0;8;0;4070;0;0;0;0;9;0;2156;0;0;0;0
19.11.17;19:00:00;1;460;10532;0;2;0;3324;0;0;0;0;3;0;2029;0;0;0;0;4;0;2361;0;0;0;0;5;0;6862;2;0;0;0;0;0;6;0;2909;2;0;0;0;0;0;7;0;4072;0;0;0;0;8;0;4070;0;0;0;0;9;0;2156;0;0;0;0
19.11.17;18:55:00;1;463;10494;0;2;0;3324;0;0;0;0;3;0;2029;0;0;0;0;4;0;2361;0;0;0;0;5;0;6862;2;0;0;0;0;0;6;0;2909;2;0;0;0;0;0;7;0;4072;0;0;0;0;8;0;4070;0;0;0;0;9;0;2156;0;0;0;0
19.11.17;18:50:00;1;432;10456;0;2;0;3324;0;0;0;0;3;0;2029;0;0;0;0;4;0;2361;0;0;0;0;5;0;6862;2;0;0;0;0;0;6;0;2909;2;0;0;0;0;0;7;0;4072;0;0;0;0;8;0;4070;0;0;0;0;9;0;2156;0;0;0;0
19.11.17;18:45:00;1;424;10419;0;2;0;3324;0;0;0;0;3;0;2029;0;0;0;0;4;0;2361;0;0;0;0;5;0;6862;2;0;0;0;0;0;6;0;2909;2;0;0;0;0;0;7;0;4072;0;0;0;0;8;0;4070;0;0;0;0;9;0;2156;0;0;0;0
19.11.17;18:40:00;1;436;10384;0;2;0;3324;0;0;0;0;3;0;2029;0;0;0;0;4;0;2361;0;0;0;0;5;0;6862;2;0;0;0;0;0;6;0;2909;2;0;0;0;0;0;7;0;4072;0;0;0;0;8;0;4070;0;0;0;0;9;0;2156;0;0;0;0
19.11.17;18:35:00;1;996;10334;0;2;0;3324;0;0;0;0;3;0;2029;0;0;0;0;4;0;2361;0;0;0;0;5;0;6862;2;0;0;0;0;0;6;0;2909;2;0;0;0;0;0;7;0;4072;0;0;0;0;8;0;4070;0;0;0;0;9;0;2156;0;0;0;0
19.11.17;18:30:00;1;683;10267;0;2;0;3324;0;0;0;0;3;0;2029;0;0;0;0;4;0;2361;0;0;0;0;5;0;6862;2;0;0;0;0;0;6;0;2909;2;0;0;0;0;0;7;0;4072;0;0;0;0;8;0;4070;0;0;0;0;9;0;2156;0;0;0;0
19.11.17;18:25:00;1;1254;10196;0;2;0;3324;0;0;0;0;3;0;2029;0;0;0;0;4;0;2361;0;0;0;0;5;0;6862;2;0;0;0;0;0;6;0;2909;2;0;0;0;0;0;7;0;4072;0;0;0;0;8;0;4070;0;0;0;0;9;0;2156;0;0;0;0
19.11.17;18:20:00;1;952;10128;0;2;0;3324;0;0;0;0;3;0;2029;0;0;0;0;4;0;2361;0;0;0;0;5;0;6862;2;0;0;0;0;0;6;0;2909;2;0;0;0;0;0;7;0;4072;0;0;0;0;8;0;4070;0;0;0;0;9;0;2156;0;0;0;0
19.11.17;18:15:00;1;894;10060;0;2;0;3324;0;0;0;0;3;0;2029;0;0;0;0;4;0;2361;0;0;0;0;5;0;6862;2;0;0;0;0;0;6;0;2909;2;0;0;0;0;0;7;0;4072;0;0;0;0;8;0;4070;0;0;0;0;9;0;2156;0;0;0;0
19.11.17;18:10:00;1;810;9985;0;2;0;3324;0;0;0;0;3;0;2029;0;0;0;0;4;0;2361;0;0;0;0;5;0;6862;2;0;0;0;0;0;6;0;2909;2;0;0;0;0;0;7;0;4072;0;0;0;0;8;0;4070;0;0;0;0;9;0;2156;0;0;0;0
19.11.17;18:05:00;1;744;9902;0;2;0;3324;0;0;0;0;3;0;2029;0;0;0;0;4;0;2361;0;0;0;0;5;0;6862;2;0;0;0;0;0;6;0;2909;2;0;0;0;0;0;7;0;4072;0;0;0;0;8;0;4070;0;0;0;0;9;0;2156;0;0;0;0
19.11.17;18:00:00;1;464;9837;0;2;0;3324;0;0;0;0;3;0;2029;0;0;0;0;4;0;2361;0;0;0;0;5;0;6862;2;0;0;0;0;0;6;0;2909;2;0;0;0;0;0;7;0;4072;0;0;0;0;8;0;4070;0;0;0;0;9;0;2156;0;0;0;0
19.11.17;17:55:00;1;417;9798;0;2;0;3324;0;0;0;0;3;0;2029;0;0;0;0;4;0;2361;0;0;0;0;5;0;6862;2;0;0;0;0;0;6;0;2909;2;0;0;0;0;0;7;0;4072;0;0;0;0;8;0;4070;0;0;0;0;9;0;2156;0;0;0;0
19.11.17;17:50:00;1;415;9763;0;2;0;3324;0;0;0;0;3;0;2029;0;0;0;0;4;0;2361;0;0;0;0;5;0;6862;2;0;0;0;0;0;6;0;2909;2;0;0;0;0;0;7;0;4072;0;0;0;0;8;0;4070;0;0;0;0;9;0;2156;0;0;0;0
19.11.17;17:45:00;1;546;9728;0;2;0;3324;0;0;0;0;3;0;2029;0;0;0;0;4;0;2361;0;0;0;0;5;0;6862;2;0;0;0;0;0;6;0;2909;2;0;0;0;0;0;7;0;4072;0;0;0;0;8;0;4070;0;0;0;0;9;0;2156;0;0;0;0
19.11.17;17:40:00;1;699;9681;0;2;0;3324;0;0;0;0;3;0;2029;0;0;0;0;4;0;2361;0;0;0;0;5;0;6862;2;0;0;0;0;0;6;0;2909;2;0;0;0;0;0;7;0;4072;0;0;0;0;8;0;4070;0;0;0;0;9;0;2156;0;0;0;0
19.11.17;17:35:00;1;666;9623;0;2;0;3324;0;0;0;0;3;0;2029;0;0;0;0;4;0;2361;0;0;0;0;5;0;6862;2;0;0;0;0;0;6;0;2909;2;0;0;0;0;0;7;0;4072;0;0;0;0;8;0;4070;0;0;0;0;9;0;2156;0;0;0;0
19.11.17;17:30:00;1;575;9568;0;2;0;3324;0;0;0;0;3;0;2029;0;0;0;0;4;0;2361;0;0;0;0;5;0;6862;2;0;0;0;0;0;6;0;2909;2;0;0;0;0;0;7;0;4072;0;0;0;0;8;0;4070;0;0;0;0;9;0;2156;0;0;0;0
19.11.17;17:25:00;1;509;9521;0;2;0;3324;0;0;0;0;3;0;2029;0;0;0;0;4;0;2361;0;0;0;0;5;0;6862;2;0;0;0;0;0;6;0;2909;2;0;0;0;0;0;7;0;4072;0;0;0;0;8;0;4070;0;0;0;0;9;0;2156;0;0;0;0
19.11.17;17:20:00;1;335;9481;0;2;0;3324;0;0;0;0;3;0;2029;0;0;0;0;4;0;2361;0;0;0;0;5;0;6862;2;0;0;0;0;0;6;0;2909;2;0;0;0;0;0;7;0;4072;0;0;0;0;8;0;4070;0;0;0;0;9;0;2156;0;0;0;0
19.11.17;17:15:00;1;353;9452;0;2;0;3324;0;0;0;0;3;0;2029;0;0;0;0;4;0;2361;0;0;0;0;5;0;6862;2;0;0;0;0;0;6;0;2909;2;0;0;0;0;0;7;0;4072;0;0;0;0;8;0;4070;0;0;0;0;9;0;2156;0;0;0;0
19.11.17;17:10:00;1;392;9422;0;2;0;3324;0;0;0;0;3;0;2029;0;0;0;0;4;0;2361;0;0;0;0;5;0;6862;2;0;0;0;0;0;6;0;2909;2;0;0;0;0;0;7;0;4072;0;0;0;0;8;0;4070;0;0;0;0;9;0;2156;0;0;0;0
19.11.17;17:05:00;1;330;9389;0;2;0;3324;0;0;0;0;3;0;2029;0;0;0;0;4;0;2361;0;0;0;0;5;0;6862;2;0;0;0;0;0;6;0;2909;2;0;0;0;0;0;7;0;4072;0;0;0;0;8;0;4070;0;0;0;0;9;0;2156;0;0;0;0
19.11.17;17:00:00;1;290;9360;0;2;0;3324;0;0;0;0;3;0;2029;0;0;0;0;4;0;2361;0;0;0;0;5;0;6862;2;0;0;0;0;0;6;0;2909;2;0;0;0;0;0;7;0;4072;0;0;0;0;8;0;4070;0;0;0;0;9;0;2156;0;0;0;0
19.11.17;16:55:00;1;249;9336;0;2;0;3324;0;0;0;0;3;0;2029;0;0;0;0;4;0;2361;0;0;0;0;5;0;6862;2;0;0;0;0;0;6;0;2909;2;0;0;0;0;0;7;0;4072;0;0;0;0;8;0;4070;0;0;0;0;9;0;2156;0;0;0;0
19.11.17;16:50:00;1;241;9315;0;2;0;3324;0;0;0;0;3;0;2029;0;0;0;0;4;0;2361;0;0;0;0;5;0;6862;2;0;0;0;0;0;6;0;2909;2;0;0;0;0;0;7;0;4072;0;0;0;0;8;0;4070;0;0;0;0;9;0;2156;0;0;0;0
19.11.17;16:45:00;1;239;9295;0;2;0;3324;0;0;0;0;3;0;2029;0;0;0;0;4;0;2361;0;0;0;0;5;0;6862;2;0;0;0;0;0;6;0;2909;2;0;0;0;0;0;7;0;4072;0;0;0;0;8;0;4070;0;0;0;0;9;0;2156;0;0;0;0
19.11.17;16:40:00;1;250;9275;0;2;0;3324;0;0;0;0;3;0;2029;0;0;175;8;4;0;2361;0;0;0;0;5;0;6862;2;0;0;0;0;0;6;0;2909;2;0;0;0;0;0;7;0;4072;0;0;0;0;8;0;4070;0;0;0;0;9;0;2156;0;0;0;0
19.11.17;16:35:00;1;261;9253;0;2;0;3324;2;0;270;10;3;0;2029;6;0;298;13;4;0;2361;0;0;11;1;5;0;6862;2;0;0;0;0;0;6;0;2909;0;0;0;0;0;0;7;0;4072;0;0;0;0;8;0;4070;0;0;0;0;9;0;2156;0;0;0;0
19.11.17;16:30:00;1;237;9232;0;2;0;3324;6;0;301;10;3;0;2029;6;0;344;14;4;0;2361;2;0;83;9;5;0;6862;2;0;0;8;7;3;6;0;2909;2;0;0;0;0;0;7;0;4072;0;0;0;0;8;0;4070;0;0;0;0;9;0;2156;0;0;0;0
19.11.17;16:25:00;1;234;9212;0;2;0;3324;6;0;334;11;3;0;2029;6;0;408;14;4;0;2361;1;0;117;9;5;0;6862;1;0;0;318;316;21;6;0;2909;1;7;2;143;315;17;7;0;4072;0;0;106;5;8;0;4070;0;0;106;5;9;0;2156;0;0;216;8
19.11.17;16:20:00;1;234;9192;0;2;0;3324;6;0;385;11;3;1;2029;4;4;444;14;4;0;2361;1;0;194;9;5;10;6862;26;1;4;409;620;21;6;0;2909;23;8;3;181;558;20;7;0;4072;6;0;370;14;8;0;4070;6;0;375;14;9;0;2156;6;0;394;10
19.11.17;16:15:00;1;294;9172;0;2;0;3324;6;0;409;11;3;2;2028;3;10;469;14;4;0;2361;3;0;213;10;5;12;6861;26;3;6;426;679;21;6;7;2909;23;5;6;474;537;20;7;1;4072;6;4;416;14;8;0;4070;6;4;421;14;9;1;2156;6;2;455;10
19.11.17;16:10:00;1;264;9147;0;2;3;3324;6;8;408;11;3;1;2028;6;5;513;14;4;0;2361;3;0;229;10;5;44;6859;4;14;13;414;667;22;6;13;2908;4;7;10;544;520;21;7;0;4072;6;4;455;14;8;0;4070;6;4;458;14;9;2;2156;6;3;503;10
19.11.17;16:05:00;1;433;9124;0;2;0;3324;6;0;408;11;3;1;2028;6;3;492;14;4;0;2361;3;0;224;10;5;60;6855;1;13;12;389;622;22;6;35;2906;1;15;22;483;457;21;7;0;4072;6;0;426;15;8;0;4070;6;0;431;14;9;0;2156;6;1;464;10
19.11.17;16:00:00;1;503;9085;0;2;33;3324;6;53;380;12;3;2;2028;6;6;529;14;4;10;2361;3;10;199;10;5;146;6850;4;60;49;377;603;23;6;91;2903;4;40;44;453;425;21;7;0;4072;6;4;476;15;8;0;4070;6;4;477;14;9;2;2156;6;3;524;10
19.11.17;15:55:00;1;471;9043;0;2;13;3321;4;20;423;12;3;6;2028;6;13;532;14;4;21;2360;3;22;200;10;5;159;6837;4;67;58;377;603;23;6;104;2895;4;64;71;453;425;21;7;20;4072;4;38;421;15;8;21;4070;4;38;422;14;9;3;2156;3;14;501;11
19.11.17;15:50:00;1;557;9002;0;2;4;3319;3;9;403;12;3;1;2027;4;6;486;14;4;0;2358;3;0;218;10;5;18;6825;4;7;5;428;682;22;6;12;2887;4;9;4;447;574;21;7;1;4071;6;4;450;15;8;1;4068;6;4;456;14;9;0;2156;6;1;501;11
19.11.17;15:45:00;1;613;8955;0;2;1;3319;6;7;402;12;3;4;2027;3;10;473;15;4;0;2358;3;0;230;10;5;74;6823;4;18;22;381;608;23;6;0;2886;23;5;6;517;592;21;7;0;4070;6;0;465;15;8;0;4068;6;2;447;15;9;1;2155;6;3;486;11
19.11.17;15:40:00;1;567;8904;0;2;2;3319;6;7;408;12;3;1;2027;6;5;510;15;4;0;2358;3;0;220;11;5;88;6816;4;22;23;381;608;23;6;41;2886;1;16;21;474;447;22;7;1;4070;3;4;430;15;8;0;4068;6;0;461;15;9;2;2155;6;4;470;11
19.11.17;15:35:00;1;1862;8856;0;2;0;3318;6;0;413;12;3;2;2027;6;5;496;15;4;0;2358;3;0;214;11;5;81;6809;4;16;20;381;608;23;6;11;2883;4;7;11;508;563;21;7;0;4070;6;2;441;15;8;1;4068;3;4;426;15;9;1;2155;6;3;487;11
19.11.17;15:30:00;1;2138;8683;0;2;1;3318;6;7;409;13;3;1;2027;6;4;511;15;4;1;2358;3;1;211;11;5;91;6802;4;25;26;381;608;23;6;52;2882;4;17;23;444;415;22;7;3;4070;6;7;432;16;8;0;4067;6;4;455;15;9;0;2155;6;1;499;11
19.11.17;15:25:00;1;597;8525;0;2;3;3318;6;8;409;13;3;0;2026;6;6;510;15;4;0;2358;3;0;226;11;5;98;6795;4;29;29;381;608;23;6;58;2877;4;23;31;447;415;22;7;0;4070;6;4;458;16;8;2;4067;6;5;443;16;9;2;2155;4;3;504;12
19.11.17;15:20:00;1;732;8475;0;2;0;3318;6;0;419;13;3;0;2026;6;0;533;15;4;0;2358;3;0;227;11;5;90;6787;4;26;24;381;608;23;6;7;2873;23;4;8;569;509;22;7;2;4070;6;4;456;16;8;0;4067;6;3;459;16;9;3;2155;6;4;479;12
19.11.17;15:15:00;1;574;8423;0;2;10;3318;3;23;401;14;3;3;2026;3;15;487;16;4;1;2358;3;1;199;12;5;123;6779;4;45;40;381;608;24;6;62;2872;4;35;24;450;280;23;7;0;4070;6;0;490;17;8;0;4067;6;5;469;16;9;0;2154;6;5;514;12
19.11.17;15:10:00;1;593;8375;0;2;51;3317;4;87;377;14;3;3;2026;6;9;537;16;4;9;2358;3;10;198;12;5;172;6769;4;72;60;381;608;24;6;90;2866;4;59;43;450;280;23;7;9;4070;4;16;464;17;8;5;4067;6;10;492;17;9;3;2154;6;6;536;12
19.11.17;15:05:00;1;598;8326;0;2;78;3313;4;111;373;15;3;17;2026;6;29;506;16;4;32;2357;3;34;198;12;5;219;6754;4;101;86;381;608;24;6;113;2859;4;44;32;450;280;23;7;48;4069;4;86;429;17;8;44;4067;4;84;437;17;9;4;2154;6;10;547;12
19.11.17;15:00:00;1;599;8276;0;2;73;3306;4;107;374;15;3;5;2025;6;11;545;16;4;33;2354;3;35;198;12;5;219;6736;4;105;89;381;608;24;6;114;2849;4;66;49;450;280;23;7;46;4065;4;90;439;17;8;45;4063;4;90;441;17;9;5;2154;6;9;552;13
19.11.17;14:55:00;1;549;8225;0;2;107;3300;4;142;373;15;3;21;2024;6;33;530;17;4;71;2352;3;74;198;12;5;279;6717;4;131;115;381;608;24;6;147;2839;4;82;55;450;280;23;7;71;4061;4;112;465;18;8;68;4059;4;105;474;17;9;5;2153;4;9;558;13
19.11.17;14:50:00;1;493;8180;0;2;122;3291;4;154;373;16;3;49;2023;6;77;519;17;4;71;2346;3;74;207;13;5;304;6694;4;146;124;381;608;24;6;158;2827;4;89;59;449;280;23;7;81;4055;4;121;461;18;8;81;4054;4;123;462;17;9;26;2153;3;40;526;13
19.11.17;14:45:00;1;467;8139;0;2;137;3282;4;175;379;16;3;72;2019;4;116;513;18;4;95;2340;5;99;211;13;5;326;6669;4;157;134;381;608;24;6;172;2814;4;102;69;450;280;23;7;114;4049;4;153;476;18;8;123;4047;4;161;472;18;9;29;2151;4;41;540;13
19.11.17;14:40:00;1;465;8099;0;2;125;3270;4;162;379;16;3;67;2013;4;108;496;18;4;73;2332;3;76;198;13;5;310;6642;4;152;124;381;608;24;6;165;2800;4;87;54;450;280;23;7;82;4039;4;127;479;18;8;106;4037;4;147;452;18;9;8;2148;6;13;567;14
19.11.17;14:35:00;1;498;8060;0;2;126;3260;4;163;379;17;3;70;2007;4;109;468;18;4;76;2326;3;79;199;13;5;317;6616;4;153;130;381;608;24;6;178;2786;4;105;82;450;319;23;7;116;4032;4;149;454;18;8;112;4028;4;151;458;18;9;11;2147;4;16;562;14
19.11.17;14:30:00;1;610;8019;0;2;205;3249;4;244;386;17;3;120;2001;4;161;501;18;4;160;2320;5;166;227;14;5;504;6589;4;248;209;400;628;25;6;368;2771;4;172;184;556;538;23;7;185;4023;4;222;467;19;8;179;4019;4;220;478;18;9;97;2146;4;130;508;15
19.11.17;14:25:00;1;573;7968;0;2;303;3232;4;346;393;18;3;183;1991;4;230;513;19;4;248;2307;5;258;236;14;5;655;6546;4;332;279;414;650;25;6;504;2739;4;263;279;577;561;24;7;297;4008;4;329;481;19;8;283;4004;4;331;492;18;9;160;2138;4;194;529;15
19.11.17;14:20:00;1;649;7920;0;2;283;3207;4;327;393;19;3;172;1976;4;215;508;19;4;226;2286;5;236;236;14;5;630;6492;4;318;263;407;657;25;6;471;2698;4;250;267;587;565;24;7;244;3983;4;280;466;19;8;234;3981;4;278;465;19;9;128;2125;4;161;505;16
19.11.17;14:15:00;1;855;7867;0;2;316;3184;4;360;403;19;3;190;1962;4;236;521;19;4;263;2268;5;274;233;15;5;714;6439;4;358;307;409;645;25;6;528;2658;4;288;304;587;572;24;7;301;3963;4;338;486;20;8;302;3962;4;341;482;19;9;159;2114;4;195;526;16
19.11.17;14:10:00;1;959;7798;0;2;860;3157;4;927;417;21;3;540;1946;4;601;530;20;4;764;2245;5;796;247;15;5;1741;6373;4;907;754;434;715;26;6;1311;2610;4;682;673;609;587;24;7;1004;3938;4;1073;488;20;8;999;3936;4;1055;485;19;9;533;2101;4;588;538;17
19.11.17;14:05:00;1;842;7728;0;2;886;3087;4;953;415;21;3;560;1902;4;621;535;20;4;775;2183;5;807;244;15;5;1747;6226;4;905;752;431;723;26;6;1326;2499;4;677;672;615;585;24;7;1026;3856;4;1095;488;20;8;1030;3855;4;1089;478;20;9;559;2057;4;613;538;17
19.11.17;14:00:00;1;756;7661;0;2;852;3013;4;920;414;22;3;537;1855;4;598;525;20;4;734;2118;5;764;246;15;5;1675;6081;4;869;725;434;709;26;6;1276;2389;4;648;652;609;583;24;7;1014;3770;4;1086;471;20;8;1008;3769;4;1075;469;20;9;543;2011;4;596;524;18
19.11.17;13:55:00;1;770;7598;0;2;981;2942;4;1053;415;23;3;621;1811;4;681;524;21;4;833;2057;5;868;241;15;5;1940;5942;4;1000;842;425;698;25;6;1462;2282;4;747;740;600;586;24;7;1185;3686;4;1262;483;20;8;1166;3685;4;1233;477;19;9;619;1966;4;678;532;18
19.11.17;13:50:00;1;776;7534;0;2;3052;2860;4;3231;431;26;3;1900;1758;4;2023;531;22;4;1743;1987;5;1816;249;15;5;5178;5774;4;2841;2318;439;715;24;6;3752;2155;4;1959;1884;621;603;23;7;3718;3587;4;3897;490;19;8;3656;3587;4;3842;475;19;9;2023;1914;4;2147;513;20
19.11.17;13:45:00;1;773;7468;0;2;3809;2617;4;4021;427;23;3;2479;1607;4;2623;546;21;4;1836;1847;5;1912;236;14;5;6805;5319;4;3745;3063;446;716;24;6;5229;1817;4;2716;2610;632;601;23;7;5510;3291;4;5792;491;18;8;5414;3297;4;5689;485;18;9;2983;1753;4;3163;540;19
19.11.17;13:40:00;1;783;7402;0;2;3526;2298;4;3721;428;21;3;2266;1399;4;2402;549;19;4;1580;1691;5;1645;211;13;5;6363;4756;4;3487;2865;446;723;23;6;4711;1386;4;2528;2292;635;558;22;7;5219;2829;4;5476;497;17;8;5110;2843;4;5371;494;16;9;2796;1503;4;2963;552;17